CAPE
0 0 0 0 0 0 0 0 0 0 0 0 0 0 0 0 2 0 0 0 0 0 0 0 0 0 49 246 262 142 42 116 36 8 0 20 46 33 0 3 12 11 140 651 529 588 789 599 450
0 0 0 0 0 0 0 0 0 0 0 0 0 0 0 0 0 0 0 0 0 0 0 0 0 0 0 16 297 215 77 100 145 75 30 36 6 3 3 3 6 11 54 245 378 399 614 405 467
0 0 0 0 0 0 0 0 0 0 0 0 0 0 0 0 0 0 0 0 0 0 0 0 0 0 0 0 13 308 228 117 160 138 168 157 75 34 1 4 32 32 7 41 374 319 391 364 402
0 0 0 0 0 0 0 0 0 0 0 0 0 0 0 0 0 0 0 0 0 0 0 0 0 0 0 0 0 1 177 208 188 182 195 143 145 61 16 1 14 21 53 0 73 214 249 225 269
0 0 0 0 0 0 0 0 0 0 0 0 0 0 0 0 0 0 0 0 0 0 0 0 0 0 0 0 0 1 0 95 67 163 130 117 97 102 47 13 9 24 16 25 31 376 142 77 156
0 0 0 0 0 0 0 0 0 0 0 0 0 0 0 0 0 0 0 0 0 0 0 0 0 0 0 0 0 1 3 13 17 28 63 36 27 20 29 3 27 17 15 43 108 184 230 122 131
0 0 0 0 0 0 0 0 0 0 0 0 0 0 0 0 0 0 0 0 0 0 0 0 0 0 0 0 1 1 4 6 5 5 10 3 7 4 5 1 4 14 1 11 20 115 255 121 138
0 0 0 0 0 0 0 0 0 0 0 0 0 0 0 0 0 0 0 0 0 0 0 0 0 0 0 0 0 0 2 3 3 1 0 0 2 3 2 0 5 6 6 2 7 7 18 195 75
0 0 0 0 0 0 0 0 0 0 0 0 0 0 0 0 0 0 0 0 0 0 0 0 0 0 0 0 0 1 1 3 10 10 0 0 3 3 2 1 2 3 4 3 5 1 0 0 2
0 0 0 0 0 0 0 0 0 0 0 0 0 0 0 0 0 0 0 0 0 0 0 0 0 0 0 0 0 3 1 3 28 22 10 1 0 1 1 1 0 0 0 2 4 6 2 0 0
0 0 0 0 0 0 0 0 0 0 0 0 0 0 0 0 0 0 0 0 0 0 0 0 0 0 0 0 0 1 3 3 17 34 13 5 1 1 4 4 3 3 0 1 1 0 2 2 1
0 0 0 0 0 0 0 0 0 0 0 0 0 0 0 0 0 0 0 0 0 0 0 0 0 0 0 0 0 0 3 4 9 21 5 4 4 2 3 3 1 2 0 0 1 2 1 0 0
0 0 0 0 0 0 0 0 0 0 0 0 0 0 0 0 0 0 0 0 0 0 0 0 0 0 0 0 2 3 9 9 4 6 4 5 3 4 3 0 0 0 0 0 0 0 0 0 1
0 0 0 0 0 0 0 0 0 0 0 0 0 0 0 0 0 0 0 0 0 0 0 0 0 0 0 0 1 1 16 5 4 3 5 4 2 3 3 2 0 0 0 0 0 0 0 1 0
0 0 0 0 0 0 0 0 0 0 0 0 0 0 0 0 0 0 0 0 0 0 0 0 0 0 0 0 2 3 5 4 4 4 4 2 4 2 2 2 1 0 1 0 0 0 1 0 0
0 0 0 0 0 0 0 0 0 0 0 0 0 0 0 0 0 0 0 0 0 0 0 0 0 0 0 0 2 5 1 0 2 4 5 3 3 4 1 2 0 0 0 0 0 0 0 0 0
0 0 0 0 0 0 0 0 0 0 0 0 0 0 0 0 0 0 0 0 0 0 0 0 0 0 0 0 2 4 1 1 2 0 1 3 3 3 4 1 1 0 0 0 0 0 0 1 1
0 0 0 0 0 0 0 0 0 0 0 0 0 0 0 0 0 0 0 0 0 0 0 0 0 0 0 0 0 0 0 0 0 1 0 0 3 3 3 3 3 2 2 0 0 0 0 2 2
0 0 0 0 0 0 0 0 0 0 0 0 0 0 0 0 0 0 0 0 0 0 0 0 0 0 0 0 0 0 0 0 0 0 0 0 0 2 3 2 3 2 2 1 0 0 0 2 2
0 0 0 0 0 0 0 0 0 0 0 0 0 0 0 0 0 0 0 0 0 0 0 0 0 0 0 0 0 0 0 0 0 0 0 0 0 0 3 3 2 1 3 1 1 0 1 0 0
0 0 0 0 0 0 0 0 0 0 0 0 0 0 0 0 0 0 0 0 0 0 0 0 0 0 0 0 0 0 0 0 0 0 0 0 0 0 0 3 1 2 2 1 1 0 0 0 1
0 0 0 0 0 0 0 0 0 0 0 0 0 0 0 0 0 0 0 0 0 0 0 0 0 0 0 0 0 0 0 0 0 0 0 0 0 0 0 0 3 3 2 1 1 1 1 0 1
0 0 0 0 0 0 0 0 0 0 0 0 0 0 0 0 0 0 0 0 0 0 0 0 0 0 0 0 0 0 0 0 0 0 0 0 0 0 0 0 2 3 2 2 1 1 2 1 2
0 0 0 0 0 0 0 0 0 0 0 0 0 0 0 0 0 0 0 0 0 0 0 0 0 0 0 0 0 0 0 0 0 0 0 0 0 0 0 0 0 2 2 3 1 1 1 1 1
0 0 0 0 0 0 0 0 0 0 0 0 0 0 0 0 0 0 0 0 0 0 0 0 0 0 0 0 0 0 0 0 0 0 0 0 0 0 0 0 0 1 2 3 2 3 4 0 1
0 0 0 0 0 0 0 0 0 0 0 0 0 0 0 0 0 0 0 0 0 0 0 0 0 0 0 0 0 0 0 0 0 0 0 0 0 0 0 0 0 0 0 1 1 2 3 6 3
0 0 0 0 0 0 0 0 0 0 0 0 0 0 0 0 0 0 0 0 0 0 0 0 0 0 0 0 0 0 0 0 0 0 0 0 0 0 0 0 0 0 0 0 2 2 2 3 4
0 0 0 0 0 0 0 0 0 0 0 0 0 0 0 0 0 0 0 0 0 0 0 0 0 0 0 0 0 0 0 0 0 0 0 0 0 0 0 0 0 0 0 0 0 1 2 3 3
0 0 0 0 0 0 0 0 0 0 0 0 0 0 0 0 0 0 0 0 0 0 0 0 0 0 0 0 0 0 0 0 0 0 0 0 0 0 0 0 0 0 0 0 0 0 0 2 2
0 0 0 0 0 0 0 0 0 0 0 0 0 0 0 0 0 0 0 0 0 0 0 0 0 0 0 0 0 0 0 0 0 0 0 0 0 0 0 0 0 0 0 0 0 0 0 0 2
CIN
0 0 0 0 0 0 0 0 0 0 0 0 0 0 0 0 -1 0 0 0 0 0 0 0 0 0 -25 0 -1 -3 -27 -29 -2 -8 -12 -4 0 0 0 -2 0 -4 -1 -3 0 -1 -2 -2 -9
0 0 0 0 0 0 0 0 0 0 0 0 0 0 0 0 0 0 0 0 0 0 0 0 0 0 0 -28 -1 0 -31 -28 -25 -8 -4 -1 0 0 0 0 0 0 -8 0 -2 -2 -1 -6 -4
0 0 0 0 0 0 0 0 0 0 0 0 0 0 0 0 0 0 0 0 0 0 0 0 0 0 0 0 -13 0 0 -3 -2 -11 -26 -18 -5 -8 0 0 -1 0 -49 -61 0 -1 -4 -5 -2
0 0 0 0 0 0 0 0 0 0 0 0 0 0 0 0 0 0 0 0 0 0 0 0 0 0 0 0 0 -1 -4 0 0 -2 0 -16 -17 -9 -13 0 0 -3 -2 -70 -28 0 -1 -3 -4
0 0 0 0 0 0 0 0 0 0 0 0 0 0 0 0 0 0 0 0 0 0 0 0 0 0 0 0 0 0 0 -5 -19 -4 -15 -43 -54 -62 -19 -1 -1 -3 -16 -42 -42 0 -5 -4 -2
0 0 0 0 0 0 0 0 0 0 0 0 0 0 0 0 0 0 0 0 0 0 0 0 0 0 0 0 0 0 0 -2 -34 -44 -58 -25 -25 -67 -10 0 -5 0 -2 -18 -20 -8 -1 -1 -1
0 0 0 0 0 0 0 0 0 0 0 0 0 0 0 0 0 0 0 0 0 0 0 0 0 0 0 0 0 0 0 0 0 0 -28 -3 -81 -13 -1 0 0 -2 -1 -14 -34 -11 -1 -1 0
0 0 0 0 0 0 0 0 0 0 0 0 0 0 0 0 0 0 0 0 0 0 0 0 0 0 0 0 0 0 0 0 0 -1 -1 -1 0 0 0 0 0 0 0 0 0 -12 -11 0 -1
0 0 0 0 0 0 0 0 0 0 0 0 0 0 0 0 0 0 0 0 0 0 0 0 0 0 0 0 0 0 0 -6 0 0 -1 0 0 0 0 0 0 0 0 0 0 -2 0 0 0
0 0 0 0 0 0 0 0 0 0 0 0 0 0 0 0 0 0 0 0 0 0 0 0 0 0 0 0 0 0 0 -5 0 0 -2 -7 0 0 0 0 0 0 0 0 0 0 0 0 0
0 0 0 0 0 0 0 0 0 0 0 0 0 0 0 0 0 0 0 0 0 0 0 0 0 0 0 0 0 0 0 -2 0 0 -2 -7 0 0 0 0 0 0 0 0 0 0 0 0 0
0 0 0 0 0 0 0 0 0 0 0 0 0 0 0 0 0 0 0 0 0 0 0 0 0 0 0 0 0 0 0 0 -1 -2 -2 -1 0 0 0 0 0 0 0 0 0 0 0 0 0
0 0 0 0 0 0 0 0 0 0 0 0 0 0 0 0 0 0 0 0 0 0 0 0 0 0 0 0 0 0 0 0 -1 0 0 0 0 0 0 0 0 0 0 0 0 0 0 0 0
0 0 0 0 0 0 0 0 0 0 0 0 0 0 0 0 0 0 0 0 0 0 0 0 0 0 0 0 0 0 -1 0 0 0 0 0 0 0 0 0 0 0 0 0 0 0 0 0 0
0 0 0 0 0 0 0 0 0 0 0 0 0 0 0 0 0 0 0 0 0 0 0 0 0 0 0 0 0 0 0 0 0 0 0 0 0 0 0 0 0 0 0 0 0 0 0 0 0
0 0 0 0 0 0 0 0 0 0 0 0 0 0 0 0 0 0 0 0 0 0 0 0 0 0 0 0 0 0 0 0 0 0 0 0 0 0 0 0 0 0 0 0 -1 0 0 0 0
0 0 0 0 0 0 0 0 0 0 0 0 0 0 0 0 0 0 0 0 0 0 0 0 0 0 0 0 0 0 0 -1 0 0 0 0 0 0 0 0 0 0 0 0 0 0 0 0 0
0 0 0 0 0 0 0 0 0 0 0 0 0 0 0 0 0 0 0 0 0 0 0 0 0 0 0 0 0 0 0 0 0 0 0 0 0 0 0 0 0 0 0 0 0 0 0 0 0
0 0 0 0 0 0 0 0 0 0 0 0 0 0 0 0 0 0 0 0 0 0 0 0 0 0 0 0 0 0 0 0 0 0 0 0 0 0 0 0 0 0 0 0 0 0 0 0 0
0 0 0 0 0 0 0 0 0 0 0 0 0 0 0 0 0 0 0 0 0 0 0 0 0 0 0 0 0 0 0 0 0 0 0 0 0 0 0 0 0 0 0 0 0 0 0 0 0
0 0 0 0 0 0 0 0 0 0 0 0 0 0 0 0 0 0 0 0 0 0 0 0 0 0 0 0 0 0 0 0 0 0 0 0 0 0 0 0 0 0 0 0 0 0 0 0 0
0 0 0 0 0 0 0 0 0 0 0 0 0 0 0 0 0 0 0 0 0 0 0 0 0 0 0 0 0 0 0 0 0 0 0 0 0 0 0 0 0 0 0 0 0 0 0 0 0
0 0 0 0 0 0 0 0 0 0 0 0 0 0 0 0 0 0 0 0 0 0 0 0 0 0 0 0 0 0 0 0 0 0 0 0 0 0 0 0 0 0 0 0 0 0 0 0 -6
0 0 0 0 0 0 0 0 0 0 0 0 0 0 0 0 0 0 0 0 0 0 0 0 0 0 0 0 0 0 0 0 0 0 0 0 0 0 0 0 0 0 0 0 -1 -1 0 0 0
0 0 0 0 0 0 0 0 0 0 0 0 0 0 0 0 0 0 0 0 0 0 0 0 0 0 0 0 0 0 0 0 0 0 0 0 0 0 0 0 0 0 0 0 0 -1 -1 -1 0
0 0 0 0 0 0 0 0 0 0 0 0 0 0 0 0 0 0 0 0 0 0 0 0 0 0 0 0 0 0 0 0 0 0 0 0 0 0 0 0 0 0 0 0 0 0 0 0 0
0 0 0 0 0 0 0 0 0 0 0 0 0 0 0 0 0 0 0 0 0 0 0 0 0 0 0 0 0 0 0 0 0 0 0 0 0 0 0 0 0 0 0 0 0 0 0 0 0
0 0 0 0 0 0 0 0 0 0 0 0 0 0 0 0 0 0 0 0 0 0 0 0 0 0 0 0 0 0 0 0 0 0 0 0 0 0 0 0 0 0 0 0 0 0 0 0 0
0 0 0 0 0 0 0 0 0 0 0 0 0 0 0 0 0 0 0 0 0 0 0 0 0 0 0 0 0 0 0 0 0 0 0 0 0 0 0 0 0 0 0 0 0 0 0 0 0
0 0 0 0 0 0 0 0 0 0 0 0 0 0 0 0 0 0 0 0 0 0 0 0 0 0 0 0 0 0 0 0 0 0 0 0 0 0 0 0 0 0 0 0 0 0 0 0 0
Wind_Speed
13 17 18 19 21 26 27 24 23 26 22 26 27 27 30 27 27 22 5 19 18 15 16 15 29 38 39 40 37 35 36 36 30 30 28 28 28 26 31 30 29 31 36 28 22 18 14 10 8
16 19 20 21 24 25 25 22 25 25 21 20 23 23 26 27 27 18 12 8 16 12 10 14 28 31 34 38 38 34 32 33 34 31 29 29 30 31 31 29 29 28 29 36 28 17 13 11 8
18 20 20 20 21 24 23 22 20 22 25 20 20 25 22 19 23 19 21 18 25 36 36 39 38 37 34 34 37 38 35 33 33 33 33 31 28 28 30 29 29 26 29 31 35 27 15 12 10
19 21 23 26 26 25 24 23 21 20 22 23 21 23 23 27 21 18 15 20 24 33 36 37 41 40 40 39 38 37 36 36 35 34 33 33 33 29 31 32 31 29 28 32 34 30 21 10 12
20 20 22 23 25 23 22 23 23 22 20 23 18 21 22 25 26 26 23 29 32 33 34 36 40 41 40 39 38 37 36 34 35 34 34 34 34 32 31 30 30 30 30 32 33 31 17 17 15
18 18 20 21 22 22 22 21 22 22 22 20 22 20 21 25 30 32 31 36 36 38 39 39 39 40 39 40 39 38 36 34 34 33 33 33 32 32 30 31 31 29 30 28 32 32 15 9 12
18 19 19 20 20 20 19 19 22 22 22 23 19 19 18 29 31 28 31 35 37 38 40 41 41 41 40 38 38 38 35 35 34 33 33 32 32 30 31 31 29 27 26 26 27 32 21 15 14
17 18 17 17 17 18 18 18 19 20 23 20 20 18 18 24 29 30 32 36 38 40 41 41 42 42 41 38 37 37 34 33 32 32 33 32 31 30 28 29 28 29 26 24 24 24 25 20 19
17 17 17 16 16 17 17 17 19 19 21 25 22 22 22 26 30 34 37 39 40 42 43 43 43 42 42 39 38 37 35 34 32 31 32 32 30 29 26 26 28 28 26 23 21 20 14 8 2
17 16 16 16 16 17 18 18 18 18 20 21 23 24 25 28 33 35 37 39 41 43 43 43 44 43 43 40 38 37 37 36 33 32 32 31 30 29 27 25 26 28 26 24 21 20 16 10 8
17 15 16 16 17 16 18 20 18 17 21 22 22 24 27 30 33 35 36 38 40 40 42 43 43 44 43 42 39 37 37 37 35 33 32 30 30 30 28 26 26 26 26 25 24 20 19 15 11
16 16 15 15 16 16 16 18 21 22 20 20 22 24 27 30 32 34 36 39 40 41 42 43 43 44 43 39 38 38 38 39 37 35 32 31 30 29 28 27 26 25 23 22 22 20 17 13 13
17 15 16 16 16 17 16 18 19 21 20 20 22 25 28 30 31 33 34 36 39 41 42 42 43 44 44 42 40 38 38 38 37 35 34 32 31 30 28 27 25 24 22 20 21 20 18 16 15
13 15 15 15 17 15 16 18 17 21 16 19 21 24 27 29 32 33 36 38 39 40 42 42 43 43 43 42 41 39 39 39 37 36 36 34 32 30 28 26 25 23 22 20 18 20 20 18 15
14 15 15 16 16 14 15 20 23 21 18 19 22 23 26 29 31 34 35 37 38 39 40 42 43 43 42 42 40 39 39 39 38 36 35 35 33 31 29 28 25 23 21 20 18 17 17 15 15
12 12 12 16 16 13 11 17 23 19 18 20 21 23 26 28 31 33 34 36 37 39 41 42 44 45 44 42 40 39 38 37 37 38 37 36 35 32 30 28 26 23 22 20 18 17 17 16 18
12 11 12 13 19 13 12 15 19 18 17 19 21 23 25 28 30 32 34 35 37 39 41 43 44 45 44 42 40 39 39 38 36 37 37 37 36 34 33 30 27 25 22 19 17 18 17 14 12
9 10 11 12 17 18 16 15 16 17 17 19 20 23 25 27 30 32 34 35 37 39 40 42 43 44 43 42 40 40 39 39 38 37 37 37 36 35 33 31 29 27 25 23 19 17 18 17 16
9 10 11 12 15 15 15 14 15 16 16 17 19 21 24 27 29 31 33 35 37 38 40 40 42 43 42 42 42 41 41 40 40 39 37 36 36 36 34 33 31 29 27 24 21 20 19 19 18
11 10 12 13 17 15 13 15 15 15 15 14 16 20 24 26 29 31 33 34 36 37 38 38 39 41 41 40 40 38 39 37 38 38 37 36 35 35 33 32 31 30 28 28 25 23 23 22 20
13 13 11 15 14 18 13 15 12 14 14 14 16 18 23 26 29 32 33 34 34 35 35 35 36 38 39 41 41 40 36 36 39 39 38 36 34 33 33 31 30 30 28 28 29 27 25 24 25
13 14 13 14 15 19 14 20 11 9 11 12 14 19 23 26 28 32 35 34 33 32 31 31 33 37 38 39 40 40 39 39 38 37 36 36 34 33 31 32 30 30 27 26 27 26 25 25 25
14 13 15 16 17 18 16 19 20 8 11 9 13 18 21 24 28 32 35 34 30 29 30 29 32 36 37 37 38 38 38 36 36 36 35 34 34 33 31 30 29 28 27 27 26 25 26 25 24
8 14 18 19 19 21 17 16 17 11 6 8 12 16 20 23 28 31 33 33 30 28 28 28 31 34 35 35 36 37 37 35 35 37 35 33 32 31 31 30 29 29 27 27 27 26 25 26 27
15 15 21 22 20 22 17 20 21 9 11 9 11 15 19 23 27 30 32 32 30 30 30 29 31 33 34 34 35 36 35 34 33 32 35 33 32 31 31 30 29 29 28 27 26 25 25 26 26
11 15 19 25 25 25 19 23 21 11 9 10 12 15 19 23 26 29 30 30 29 29 30 29 31 32 33 34 34 34 34 33 32 31 34 32 32 31 31 29 29 29 28 27 26 25 25 26 27
15 16 17 21 24 26 21 20 16 11 9 9 11 14 19 22 24 26 27 28 28 28 29 29 30 31 32 33 33 34 33 33 33 34 32 32 31 31 30 30 28 27 28 27 27 25 26 27 27
18 12 19 20 26 28 24 24 22 13 9 8 10 13 18 20 22 24 26 26 26 27 27 28 29 31 31 33 33 32 32 32 31 33 33 34 32 31 31 29 29 27 27 27 27 26 26 26 26
17 18 19 19 20 28 31 27 17 15 8 7 10 13 17 18 21 23 24 24 24 25 26 27 29 30 31 33 32 32 31 30 29 32 34 33 33 32 31 29 29 28 27 26 26 25 25 25 25
20 20 16 22 24 22 27 29 20 15 12 7 10 13 15 17 20 21 22 22 23 25 26 28 29 29 30 31 31 31 29 30 30 29 34 34 34 32 31 30 29 28 27 26 26 26 25 23 24
Wind_Direction
106 93 93 80 72 65 60 62 65 49 62 41 41 49 44 20 22 24 76 310 306 309 311 313 316 328 337 340 340 349 350 348 338 327 318 315 309 312 313 298 287 272 256 265 266 265 266 264 265
93 85 74 79 69 67 69 75 61 57 65 67 55 57 43 43 35 58 56 324 310 317 350 325 315 317 322 335 343 353 356 353 347 328 325 314 311 306 308 307 291 279 268 256 263 262 256 254 250
84 71 65 68 69 63 73 75 80 60 51 68 65 48 56 55 41 47 33 27 21 4 5 358 331 329 321 322 340 351 351 352 352 347 332 325 309 302 309 300 295 277 271 266 258 260 249 242 241
72 51 51 55 58 59 65 64 69 70 58 55 65 53 55 33 43 41 41 30 25 14 7 4 354 352 349 335 337 349 356 353 354 347 343 329 326 311 306 302 301 293 282 268 264 265 244 237 243
51 48 56 59 56 64 60 57 58 60 63 52 66 61 56 35 27 26 29 21 17 14 13 8 358 351 349 349 347 346 349 352 350 352 352 339 334 316 311 312 293 289 287 270 266 268 269 251 246
35 45 61 62 62 61 54 51 51 51 51 55 53 56 52 29 13 11 14 5 7 2 1 0 0 357 357 350 345 345 349 352 350 347 349 351 351 338 317 316 313 299 292 285 268 268 249 207 226
40 40 54 67 63 59 53 55 41 43 44 38 51 55 53 16 14 20 14 8 6 2 358 357 356 356 355 355 355 350 350 350 351 350 349 350 348 352 342 325 320 312 304 295 291 270 266 232 224
42 43 61 60 64 56 56 53 50 39 31 46 38 50 43 27 19 17 14 9 5 359 357 359 355 352 351 353 354 352 353 353 354 352 348 348 349 351 348 336 323 320 309 304 294 296 282 246 205
41 37 49 52 60 58 55 52 42 46 39 26 35 37 30 19 13 7 2 359 2 358 358 359 358 355 354 354 351 351 350 351 353 352 351 346 350 350 354 348 331 324 313 316 303 299 309 315 251
22 37 39 44 54 55 47 43 44 46 37 32 28 26 20 15 9 8 5 2 1 360 0 357 355 354 353 353 352 350 347 347 347 347 347 348 346 346 346 347 342 333 312 306 304 298 297 297 280
20 40 60 44 48 51 46 33 39 44 22 18 22 17 14 11 5 7 7 4 4 6 6 5 4 357 352 350 351 351 346 342 342 343 344 344 345 342 342 339 341 337 329 311 294 295 290 283 270
43 41 40 40 39 44 43 44 31 23 25 28 24 19 12 10 7 3 3 2 3 3 5 7 7 3 360 357 354 352 347 344 339 337 339 339 340 340 337 336 336 339 338 333 303 291 290 281 269
44 49 32 33 33 34 49 36 34 30 34 31 24 17 13 11 9 6 5 6 7 7 8 8 6 3 360 356 353 350 347 344 342 340 338 335 331 332 335 334 334 336 334 337 317 296 288 280 277
43 49 43 31 25 32 42 24 27 19 29 25 20 17 16 11 8 7 4 3 6 7 8 8 6 3 359 355 354 353 349 345 343 338 333 336 331 327 328 329 329 329 329 332 335 302 284 278 281
46 38 35 7 10 35 45 14 6 17 36 33 27 24 19 13 10 7 6 4 4 7 8 8 6 2 360 355 353 352 351 349 343 338 334 330 329 328 324 323 325 325 326 325 325 318 300 285 279
23 23 18 7 2 24 28 11 6 24 39 33 32 28 23 16 12 10 6 5 5 6 7 6 4 1 359 356 353 352 351 350 344 339 334 329 327 325 324 319 319 319 318 320 319 315 305 296 282
359 3 9 12 357 15 21 18 16 28 35 31 28 26 23 17 13 9 7 6 5 5 6 5 3 2 359 357 355 352 349 347 346 343 337 330 325 323 319 315 313 312 312 312 316 310 306 302 299
354 1 4 6 1 11 19 22 22 23 27 26 26 22 20 16 11 8 6 5 5 5 5 5 5 3 1 0 359 356 352 348 342 338 339 333 325 322 319 316 311 305 303 302 302 306 304 297 290
4 4 5 5 6 7 15 21 17 19 24 26 23 20 16 13 10 7 5 6 6 5 5 6 6 5 4 1 357 355 351 349 347 342 336 334 330 321 317 314 309 303 296 293 296 294 294 291 287
357 3 357 359 356 4 18 11 14 16 19 26 24 19 13 10 8 6 6 5 4 5 5 7 7 4 4 359 357 357 354 352 352 347 341 335 332 328 320 313 310 306 294 286 284 289 288 284 280
340 345 355 350 358 1 13 359 5 13 19 26 23 18 11 8 6 5 3 3 5 5 6 7 6 6 2 357 357 355 355 351 344 345 342 338 333 330 328 318 311 307 303 290 279 281 282 280 274
333 343 350 351 350 345 357 348 353 5 7 16 18 12 8 7 7 5 2 2 4 6 7 8 8 4 2 2 1 358 356 351 344 335 336 338 332 329 328 325 315 309 304 300 290 282 281 278 272
333 343 342 342 341 343 346 344 355 6 348 3 11 7 8 7 5 2 1 2 5 7 8 9 6 3 3 4 4 2 1 2 358 342 329 330 332 329 325 324 324 316 307 302 297 295 281 277 281
2 340 337 338 339 335 344 346 349 351 331 359 4 5 6 5 3 2 2 4 6 10 10 10 7 4 3 6 6 4 4 5 0 352 332 327 327 328 328 321 319 317 318 308 301 298 297 286 281
326 331 328 330 333 334 349 343 341 350 5 5 6 4 4 4 2 2 2 5 8 9 9 9 8 4 4 6 5 4 5 7 4 2 336 327 322 322 323 324 322 316 312 312 312 307 303 296 288
315 322 324 325 328 333 342 336 349 1 4 7 8 4 2 2 3 3 5 9 11 11 10 11 8 5 6 6 7 6 8 8 5 2 344 327 324 318 320 320 324 324 318 315 312 313 311 304 298
316 312 325 324 327 326 332 338 344 350 348 353 357 358 357 1 3 5 8 10 11 12 11 12 10 9 7 6 9 9 10 8 7 359 356 328 321 319 316 320 317 321 325 324 315 312 312 314 305
308 327 320 323 324 325 332 331 331 339 327 337 346 351 355 1 3 5 8 9 12 13 13 14 11 9 6 5 6 9 10 9 10 0 359 335 321 318 316 316 316 316 322 327 323 316 314 317 318
302 304 313 321 321 322 325 331 343 337 329 328 342 351 355 0 2 4 7 10 13 13 13 13 9 7 5 2 6 8 9 8 11 4 352 352 326 321 316 314 316 315 317 320 325 323 319 316 320
299 300 297 306 315 317 321 321 336 339 342 339 346 351 357 0 2 5 7 10 12 11 12 9 7 8 6 4 5 7 7 5 6 7 352 349 335 322 320 314 313 315 314 314 320 319 318 309 311